Theta_e
350 349 349 348 347 346 345 346 345 346 344 343 346 347 348 347 346 348 347 346 345 343 344 342 342 340 336 333 336 341 335 336 343 343 342 336 336 339 341 339 332 334 338
348 349 349 349 347 347 345 347 347 348 348 348 348 349 348 347 348 348 347 347 345 345 345 345 343 343 343 342 340 337 336 335 335 337 341 338 335 338 343 342 341 335 337
348 348 348 348 348 348 348 348 348 348 348 347 348 347 346 347 348 347 347 347 346 346 346 346 344 344 343 342 344 343 343 341 338 337 343 344 341 338 337 338 342 339 341
348 347 349 349 348 347 349 349 349 348 348 349 347 347 348 348 348 348 348 346 346 346 347 347 346 345 345 342 343 343 343 343 342 341 340 339 342 342 342 339 337 337 339
347 348 348 348 348 347 348 348 347 349 347 347 347 347 347 348 348 347 347 347 348 347 348 347 347 346 346 343 344 343 342 342 343 343 342 342 341 340 340 340 340 338 336
347 346 346 347 347 343 347 348 346 348 348 346 347 346 347 347 347 346 346 347 346 347 347 347 347 347 347 345 344 344 340 342 341 343 343 342 342 342 342 341 340 340 338
347 347 347 347 347 342 339 346 346 347 347 347 346 346 345 345 346 345 345 346 346 345 346 347 347 346 341 342 345 345 342 340 341 343 342 342 342 341 341 341 341 342 341
348 347 346 343 342 344 344 343 344 345 346 345 345 343 341 342 344 345 344 345 344 344 347 346 343 344 345 344 345 345 345 344 344 343 343 342 342 341 341 342 342 342 342
347 348 347 346 343 344 343 339 338 341 344 345 345 343 341 340 339 344 341 344 345 346 346 345 346 346 347 347 346 345 345 347 341 345 345 344 343 342 342 343 343 342 342
347 346 346 346 342 343 341 342 343 341 341 341 342 343 344 342 338 339 341 340 344 341 339 340 340 344 345 345 345 345 345 343 345 346 346 345 343 343 343 343 342 341 340
347 346 345 345 344 343 344 343 343 341 342 342 342 343 344 344 342 340 340 337 342 342 340 340 342 343 343 343 343 344 344 344 343 344 345 344 343 342 342 342 341 340 341
347 346 345 345 344 342 341 345 342 343 344 344 345 344 342 343 343 341 340 339 340 339 339 340 339 342 343 343 342 342 342 343 343 343 343 342 342 342 341 340 338 339 340
347 343 343 344 344 343 343 342 343 341 340 339 339 343 345 344 343 343 340 341 341 338 338 338 339 342 342 341 340 340 342 342 342 342 342 341 341 339 339 338 339 340 341
344 343 341 341 341 336 336 338 337 339 341 341 339 339 341 343 343 343 341 341 341 338 337 337 338 341 341 340 338 339 339 340 339 339 339 339 339 339 338 337 338 339 339
346 344 345 342 338 342 334 337 339 341 341 340 341 341 338 336 341 343 343 342 341 341 338 336 337 338 339 338 337 338 338 338 339 340 339 338 336 335 335 336 337 338 339
344 343 343 343 344 345 345 346 341 339 339 336 336 338 339 339 342 342 342 342 343 341 338 335 336 337 337 336 336 336 338 339 338 337 336 336 334 335 336 336 337 338 337
346 345 345 345 345 343 343 343 343 342 342 341 339 340 342 343 343 343 343 343 344 342 336 334 335 336 336 337 335 335 335 337 336 335 334 332 334 335 334 334 335 337 336
345 344 343 342 343 343 342 341 341 341 342 341 341 342 342 341 343 342 343 343 344 344 339 333 334 335 335 336 334 333 332 331 330 329 329 329 331 332 334 334 334 334 333
346 345 344 342 342 343 342 342 342 341 341 342 341 341 341 341 343 343 343 343 343 343 342 334 332 333 334 334 331 330 328 327 326 327 327 327 327 327 328 328 329 328 328
346 343 345 343 341 340 341 341 341 340 338 339 340 338 337 339 341 340 342 342 341 340 337 334 332 332 333 333 330 330 328 327 325 325 325 325 325 325 325 325 325 325 325
346 344 344 342 341 340 340 341 340 339 336 337 339 338 337 339 338 333 339 342 340 338 334 331 330 330 331 332 331 329 328 328 326 324 323 323 324 324 323 323 323 323 322
345 344 344 342 341 341 340 340 340 337 337 337 338 338 338 336 331 335 340 342 341 339 333 331 329 330 330 331 331 330 328 325 323 323 321 321 321 322 322 321 321 321 320
345 345 345 342 342 342 341 340 338 336 336 337 337 338 338 335 334 334 340 341 340 339 338 336 331 330 330 331 331 330 328 327 326 325 322 321 321 320 319 318 317 317 316
345 344 344 343 342 342 342 341 339 334 332 335 336 336 336 336 337 333 336 339 339 337 337 335 335 334 333 332 332 331 330 328 328 327 324 322 323 322 322 319 317 314 311
344 344 344 344 343 344 343 341 339 334 330 334 334 335 335 335 336 336 334 334 333 333 335 335 335 334 333 332 331 330 329 328 328 327 325 324 324 324 324 323 320 318 314
329 343 344 345 344 343 343 340 339 336 332 332 333 333 335 335 333 333 335 334 334 333 333 333 332 333 333 331 330 329 329 328 328 326 327 325 325 324 322 323 323 321 320
Wind_Speed
14 15 15 16 15 15 16 16 14 13 13 13 12 12 10 12 11 10 13 12 12 12 10 9 12 14 13 13 14 14 14 14 14 14 14 12 12 12 12 11 11 11 10
19 17 17 19 17 17 16 16 15 14 14 13 12 13 14 10 9 8 17 17 10 15 12 11 10 14 14 13 13 13 15 15 15 15 15 14 13 14 15 14 13 12 12
20 19 21 19 19 19 19 18 15 15 15 12 15 16 15 14 14 12 12 18 13 17 15 16 14 13 14 13 15 15 16 16 16 15 16 17 15 16 17 17 17 15 14
19 20 20 19 19 19 20 18 18 19 17 16 15 15 15 15 15 15 15 13 14 17 20 17 18 16 15 17 16 17 17 17 17 17 18 19 19 19 19 19 19 17 17
21 21 21 20 16 19 20 21 19 19 17 15 14 15 15 15 16 13 11 12 15 17 19 22 19 18 18 19 19 18 19 20 20 20 19 19 20 21 21 20 20 19 16
21 21 20 19 19 15 20 22 20 18 16 12 14 16 17 15 14 13 13 13 10 11 14 16 20 21 20 21 23 21 21 24 26 23 20 20 19 21 21 21 21 20 18
20 22 20 18 18 16 19 20 21 17 14 12 11 9 13 15 12 13 14 15 13 12 13 13 17 21 18 22 26 28 23 25 24 25 22 21 21 21 19 19 19 20 19
21 24 25 23 19 19 16 18 15 13 15 12 6 2 2 5 10 10 11 9 9 11 10 8 15 17 16 19 25 27 29 29 24 23 22 20 21 21 19 19 18 16 19
15 20 24 26 22 18 20 18 18 16 12 9 11 6 2 4 0 2 2 3 5 5 3 1 3 10 15 15 16 19 21 19 19 21 20 20 20 20 19 18 16 15 15
9 11 18 23 26 25 21 19 14 14 15 17 11 16 14 5 3 1 3 3 7 7 4 1 3 7 9 11 16 17 18 16 15 17 17 18 20 20 16 15 14 12 12
10 9 11 18 20 20 19 19 15 13 16 17 17 11 14 14 8 3 2 4 6 7 5 5 5 6 7 7 10 11 11 12 13 12 14 16 16 14 13 12 10 9 10
10 7 8 14 20 18 20 19 17 15 14 15 19 21 19 8 8 5 3 4 5 5 6 5 5 4 4 2 2 3 2 3 4 6 8 9 10 10 10 8 7 7 10
14 10 12 14 17 15 16 17 17 15 14 12 11 9 15 22 7 20 10 4 2 5 3 3 4 6 5 3 2 4 5 4 5 6 8 9 10 9 9 9 8 9 11
13 11 12 13 15 14 15 15 15 13 14 13 12 11 8 10 14 15 11 7 2 2 5 4 7 8 8 4 2 5 6 6 7 7 8 9 11 11 10 9 9 9 15
14 14 12 12 13 13 14 14 14 14 12 12 13 13 14 11 13 15 17 18 10 4 4 9 6 9 9 7 5 7 10 9 9 10 10 9 8 8 8 9 11 15 20
10 12 12 13 13 13 13 13 14 12 11 11 10 9 9 9 9 12 16 15 18 15 3 7 9 14 13 10 8 9 9 10 10 9 8 7 8 9 10 11 13 17 22
13 14 14 15 16 14 13 12 11 10 13 13 12 13 11 9 10 9 9 9 12 19 7 5 16 17 15 15 12 11 11 10 10 8 8 9 10 12 13 13 13 18 20
14 13 13 11 13 14 12 12 11 9 10 11 11 11 11 8 8 7 8 10 11 17 11 12 15 18 16 19 14 12 13 10 10 11 10 10 12 13 13 14 15 15 14
14 13 14 12 12 12 11 11 11 9 7 9 10 13 10 6 7 7 7 7 8 14 23 17 13 20 20 19 16 13 10 10 10 11 11 11 11 12 12 13 14 14 13
15 14 12 11 10 9 9 10 12 11 8 8 6 8 7 6 7 6 5 5 6 14 16 20 15 18 21 20 20 19 15 13 11 12 12 13 13 13 13 13 13 14 13
18 17 17 13 11 10 12 10 11 12 8 8 7 9 7 7 7 6 6 8 12 16 16 15 12 10 15 18 18 17 19 16 12 13 14 15 15 15 15 15 15 14 14
20 21 20 18 16 13 11 11 12 13 11 10 10 10 9 6 3 3 5 7 8 18 19 14 11 13 15 16 20 21 19 12 5 14 15 15 15 16 16 16 15 15 14
23 21 19 19 16 14 12 10 10 11 9 10 10 14 12 8 5 6 7 9 9 8 4 11 18 19 20 25 25 21 22 20 10 8 19 13 17 18 17 16 17 16 16
27 24 24 21 18 17 15 12 12 12 11 8 8 12 12 10 7 6 9 9 8 8 9 8 9 10 15 20 27 29 26 20 13 10 15 9 15 20 16 17 17 18 18
24 27 26 23 21 19 17 14 12 12 12 11 6 12 12 12 11 9 10 12 10 8 9 9 6 5 7 11 18 23 20 19 9 11 18 12 11 17 17 19 19 19 18
42 34 27 25 23 20 19 15 12 12 15 13 11 10 9 11 12 12 11 12 11 10 11 9 8 7 6 7 11 18 21 17 11 9 16 16 13 10 4 19 24 23 25
Wind_Direction
214 212 220 220 221 216 214 212 211 214 218 215 224 251 273 246 253 285 209 201 224 217 224 227 228 225 221 217 216 217 219 219 223 226 226 225 222 226 230 230 227 225 229
217 216 216 222 225 223 216 217 222 220 224 223 239 242 256 248 231 259 220 200 241 223 227 225 237 239 235 234 229 231 229 227 227 229 230 231 229 229 232 236 238 230 228
219 217 219 220 225 230 226 225 228 226 236 237 228 234 242 237 238 232 213 219 238 223 234 229 228 239 242 239 235 238 239 241 237 236 237 239 235 234 236 235 235 243 237
216 218 217 224 227 227 229 222 225 224 223 227 231 226 235 240 236 224 221 230 234 227 227 232 235 236 236 233 233 236 239 242 243 242 245 247 243 241 240 236 236 239 241
221 219 221 223 228 229 220 219 221 220 223 222 232 236 237 247 238 231 237 242 249 242 245 240 240 242 244 240 241 236 242 242 240 243 246 252 250 248 246 244 243 242 243
228 229 229 222 231 220 207 212 224 216 226 238 249 246 246 248 246 244 255 241 250 258 256 257 247 234 237 249 250 243 254 251 250 241 240 245 251 252 250 247 246 247 245
232 235 236 226 226 233 217 210 217 210 223 229 239 261 257 239 251 247 257 247 254 262 254 240 233 236 258 250 246 251 254 259 256 248 239 240 244 248 250 251 253 250 245
238 237 234 230 232 234 223 222 210 214 229 221 208 185 318 263 242 249 246 254 264 238 231 233 236 253 259 255 254 258 259 265 265 244 238 243 246 248 249 250 254 253 248
247 244 235 225 216 233 233 234 225 223 215 209 210 188 122 229 335 190 115 191 198 205 170 189 201 236 239 252 265 268 269 273 246 242 244 246 245 248 250 252 258 254 246
252 247 233 224 220 231 228 223 218 222 226 228 225 225 233 195 185 267 183 144 165 165 148 169 254 246 236 253 260 266 267 264 259 251 246 256 244 244 247 250 252 244 238
235 248 220 213 208 214 220 222 223 232 233 236 231 215 225 227 207 152 251 225 207 206 225 261 263 274 275 269 271 269 267 260 255 252 243 235 230 227 230 230 231 234 214
221 216 203 205 207 206 214 224 223 228 232 240 247 240 224 191 191 173 201 208 203 231 240 260 244 235 228 261 239 220 219 213 196 191 192 194 201 200 204 209 197 188 188
212 200 195 187 198 208 208 213 217 221 221 222 230 237 238 219 205 209 202 178 160 204 212 258 208 201 195 183 176 165 151 153 158 156 161 164 168 169 171 165 168 176 172
224 214 203 201 198 204 205 205 211 215 219 224 222 220 213 224 226 218 201 172 164 162 198 208 199 183 194 176 149 137 137 145 144 148 149 150 144 148 160 165 167 163 150
244 217 213 210 208 208 209 216 217 219 219 223 226 229 224 215 234 241 236 223 186 180 201 202 184 184 176 176 142 144 141 139 140 144 143 143 152 164 176 175 170 158 155
215 207 207 214 217 221 219 220 217 213 217 218 212 212 216 212 218 225 228 221 225 204 162 183 195 182 176 176 170 176 167 160 159 164 160 160 152 149 150 152 162 162 162
200 205 217 227 217 219 213 212 215 218 221 225 230 238 245 252 242 246 238 239 227 204 144 162 194 184 176 183 176 177 186 181 180 180 177 170 162 155 152 153 157 160 163
196 198 202 199 199 211 212 212 211 219 242 234 225 233 240 236 234 247 236 244 236 211 178 158 180 176 184 186 184 185 180 179 180 174 174 173 176 176 177 174 176 181 186
196 206 210 207 209 212 216 222 224 210 233 222 238 222 200 203 218 219 225 240 246 228 214 176 158 177 176 181 174 171 164 172 179 177 176 177 179 179 179 183 184 189 191
207 208 213 217 224 218 229 223 229 226 224 223 228 210 241 235 222 225 229 225 193 183 187 167 167 172 173 181 180 177 176 185 182 187 190 187 188 188 190 192 195 197 201
209 202 204 213 229 235 239 240 244 224 232 229 240 223 219 239 254 248 218 190 165 156 162 154 153 163 174 176 184 177 183 188 198 203 203 200 197 199 200 203 205 208 211
212 209 213 213 216 226 232 251 244 226 226 235 219 222 219 215 228 207 201 192 181 164 163 163 170 180 191 186 187 186 182 177 195 216 210 211 211 218 217 219 223 224 223
208 219 225 211 208 220 232 242 248 233 227 228 224 218 212 207 185 172 157 170 174 182 197 199 187 191 192 200 197 191 196 194 191 193 202 211 221 231 232 233 231 231 231
207 212 216 220 214 217 220 220 229 231 229 213 202 206 206 201 207 184 167 167 174 191 194 198 208 207 217 215 214 211 206 208 216 219 206 200 223 232 234 237 234 234 233
237 216 217 220 216 211 211 215 218 221 223 213 194 191 201 200 198 198 185 171 175 192 190 202 225 221 206 206 212 209 200 193 200 199 208 214 219 231 240 244 237 237 235
304 253 222 220 218 214 205 207 221 228 225 215 196 178 188 205 199 205 211 199 194 190 184 193 207 217 213 209 214 218 212 195 196 202 214 207 219 204 229 247 239 236 238